DW5274 Weather Reports


Display with metric or nautical units.
time (UTC)temp
F
wind
direction
speed
MPH
gust
MPH
rain 1hr
in
rain 24hr
in
rain mn
in
humidity
%
barometer
mb
20260502163021 62 209 0.0 0.0 0.00 0.00 0.00 41 1015.0
20260502161609 61 212 0.0 0.0 0.00 0.00 0.00 43 1015.1
20260502151548 55 202 0.0 0.0 0.00 0.00 0.00 53 1014.9
20260502140116 50 196 0.0 0.0 0.00 0.00 0.00 51 1014.8
20260502123049 51 140 0.0 0.0 0.00 0.00 0.00 54 1014.4
20260502121537 51 140 0.0 0.0 0.00 0.00 0.00 53 1014.3
20260502114513 52 140 3.0 0.0 0.00 0.00 0.00 53 1014.0
20260502113013 51 143 3.0 0.0 0.00 0.00 0.00 54 1014.2
20260502111555 51 140 0.0 0.0 0.00 0.00 0.00 55 1014.2
20260502104536 51 142 0.0 0.0 0.00 0.00 0.00 56 1014.3
20260502103036 51 142 0.0 0.0 0.00 0.00 0.00 55 1014.3
20260502101519 51 144 0.0 0.0 0.00 0.00 0.00 53 1014.3
20260502090109 51 144 0.0 0.0 0.00 0.00 0.00 54 1014.4
20260502070038 53 148 0.0 0.0 0.00 0.00 0.00 53 1014.5
20260502064520 54 148 0.0 0.0 0.00 0.00 0.00 49 1014.7
20260502063008 54 148 0.0 0.0 0.00 0.00 0.00 48 1014.6
20260502061503 55 148 0.0 0.0 0.00 0.00 0.00 47 1014.6
20260502060100 56 148 0.0 0.0 0.00 0.00 0.00 46 1014.6
20260502054603 57 148 0.0 0.0 0.00 0.00 0.00 44 1014.5
20260502053055 57 148 0.0 0.0 0.00 0.00 0.00 43 1014.5
20260502051554 58 148 0.0 0.0 0.00 0.00 0.00 42 1014.5
20260502050049 59 148 0.0 0.0 0.00 0.00 0.00 41 1014.5
20260502044547 60 148 0.0 0.0 0.00 0.00 0.00 41 1014.5
20260502043024 62 148 0.0 0.0 0.00 0.00 0.00 40 1014.5
20260502041526 63 148 0.0 0.0 0.00 0.00 0.00 37 1014.5
20260502040105 65 148 0.0 0.0 0.00 0.00 0.00 35 1014.5
20260502034557 66 148 0.0 0.0 0.00 0.00 0.00 33 1014.3
20260502033041 67 148 0.0 0.0 0.00 0.00 0.00 30 1014.3
20260502031538 67 148 0.0 0.0 0.00 0.00 0.00 28 1014.2
20260502030036 69 148 0.0 0.0 0.00 0.00 0.00 25 1014.1
20260502024530 71 148 0.0 0.0 0.00 0.00 0.00 22 1014.0
20260502023026 72 148 0.0 0.0 0.00 0.00 0.00 20 1013.9
20260502021523 73 148 0.0 0.0 0.00 0.00 0.00 20 1013.9
20260502020021 74 148 0.0 0.0 0.00 0.00 0.00 20 1013.9
20260502014519 74 147 0.0 0.0 0.00 0.00 0.00 22 1014.0
20260502013006 75 150 0.0 0.0 0.00 0.00 0.00 22 1014.1
20260502011506 75 150 0.0 0.0 0.00 0.00 0.00 22 1014.3
20260502010008 76 150 0.0 0.0 0.00 0.00 0.00 19 1014.4
20260502004503 75 157 0.0 0.0 0.00 0.00 0.00 19 1014.4
20260502003002 76 157 0.0 0.0 0.00 0.00 0.00 18 1014.5
20260502001500 76 157 0.0 0.0 0.00 0.00 0.00 20 1014.6
20260502000122 76 157 0.0 0.0 0.00 0.00 0.00 19 1014.7
20260501234558 76 170 0.0 0.0 0.00 0.00 0.00 22 1014.8
20260501233039 77 150 1.0 0.0 0.00 0.00 0.00 20 1014.9
20260501231536 77 184 0.0 0.0 0.00 0.00 0.00 19 1015.1
20260501230015 76 184 1.0 0.0 0.00 0.00 0.00 19 1015.2
20260501224513 75 169 2.0 0.0 0.00 0.00 0.00 23 1015.5
20260501223100 75 185 5.0 0.0 0.00 0.00 0.00 18 1015.7
20260501221557 76 140 0.0 0.0 0.00 0.00 0.00 22 1016.0
20260501220056 75 133 5.0 0.0 0.00 0.00 0.00 21 1016.4
20260501214552 75 188 4.0 0.0 0.00 0.00 0.00 20 1016.6
20260501213050 75 153 3.0 0.0 0.00 0.00 0.00 21 1016.8
20260501211547 75 117 3.0 0.0 0.00 0.00 0.00 21 1017.0
20260501210047 75 167 3.0 0.0 0.00 0.00 0.00 22 1017.3
20260501204542 73 201 5.0 0.0 0.00 0.00 0.00 19 1017.4
20260501203029 73 161 3.0 0.0 0.00 0.00 0.00 20 1017.5
20260501201528 73 116 3.0 0.0 0.00 0.00 0.00 22 1017.7
20260501200037 72 192 5.0 0.0 0.00 0.00 0.00 22 1017.9
20260501194530 74 144 1.0 0.0 0.00 0.00 0.00 24 1018.1
20260501193023 72 140 4.0 0.0 0.00 0.00 0.00 27 1018.3
20260501191523 72 177 3.0 0.0 0.00 0.00 0.00 29 1018.4
20260501190033 71 183 3.0 0.0 0.00 0.00 0.00 28 1018.5
20260501184522 70 167 4.0 0.0 0.00 0.00 0.00 31 1018.8
20260501183016 70 130 5.0 0.0 0.00 0.00 0.00 31 1018.9
20260501181506 69 187 5.0 0.0 0.00 0.00 0.00 33 1019.0
20260501180051 68 168 5.0 0.0 0.00 0.00 0.00 32 1019.1